Volver al catálogo

COSMOS 1275 DEB

ActivoPO
NORAD 17621·DEBRIS·🇷🇺 Russia

Lanzado Jun 4, 1981 desde Plesetsk Cosmodrome

Loading…

Próximos Pases (próximas 24 horas)

TLE

ActualizadoSource: Space-Track

Época: Sep 14, 2026, 01:37 UTC

1 17621U 81053KQ  26257.06759990  .00005253  00000-0  13562-2 0  9995
2 17621  82.7759 134.5638 0029112 346.0630  13.9760 14.49606487120653

Sigue COSMOS 1275 DEB en tiempo real con AllMySat

Download on the App Store